Date String (YYYY-MM-DD hh:mm:ss) UTC,Instrument flags,absolute air pressure of the measurement (hPa),sample flow rate (lpm),inlet stack bypass flow (lpm),air temperature of the measurement (°C),ambient temperature measured by the external sensor (°C),aerosol sample conditioner tube jacket temperature (°C),OPC LED temperature (°C),internal box temperature (°C),relative humidity of the measurement (%),span deviation,mass concentration of particles derived from Lorenz-Mie calculation of OPC scattering (μg/m³),mass concentration of particles derived from Lorenz-Mie calculation of OPC scattering (μg/m³),mass concentration of particles derived from Lorenz-Mie calculation of OPC scattering (μg/m³)
DateTimeUTC,F1_M11,P_M11,Q1_M11,Q2_M11,T1_M11,T2_M11,T3_M11,T4_M11,T5_M11,U1_M11,ZSPAN_M11,X0_M11,X2_M11,X1_M11
2023-07-24 13:00:00,SystemResetWarning,0835.5,5.00,000.00,029.5,028.0,000.0,037.9,031.1,20.7,0000.0,0006.23,0003.56,0003.18
2023-07-24 13:01:00,SystemResetWarning,0835.5,5.00,000.00,029.5,028.1,000.0,038.0,031.2,20.5,0000.0,0006.39,0003.58,0003.19
2023-07-24 13:02:00,SystemResetWarning,0835.5,5.00,000.00,029.5,028.2,000.0,038.0,031.2,20.5,0000.0,0006.19,0003.59,0003.21
2023-07-24 13:03:00,SystemResetWarning,0835.5,5.00,000.00,029.6,028.3,000.0,038.0,031.3,20.3,0000.0,0005.99,0003.59,0003.23
2023-07-24 13:04:00,SystemResetWarning,0835.5,4.98,000.00,029.6,028.3,000.0,038.0,031.3,20.4,0000.0,0005.62,0003.59,0003.24
2023-07-24 13:05:00,SystemResetWarning,0835.5,5.00,000.00,029.6,027.0,000.0,037.9,031.2,21.5,0000.0,0005.77,0003.62,0003.25
2023-07-24 13:06:00,SystemResetWarning,0835.5,5.00,000.00,029.5,025.3,000.0,037.8,030.9,20.8,0000.0,0005.82,0003.65,0003.29
2023-07-24 13:07:00,SystemResetWarning,0835.5,5.01,000.00,029.5,025.2,000.0,037.7,030.7,21.7,0000.0,0005.87,0003.68,0003.32
2023-07-24 13:08:00,SystemResetWarning,0835.5,5.01,000.00,029.4,025.5,000.0,037.7,030.6,22.0,0000.0,0005.98,0003.73,0003.36
2023-07-24 13:09:00,SystemResetWarning,0835.5,5.00,000.00,029.3,026.0,000.0,037.8,030.7,22.4,0000.0,0006.71,0003.80,0003.41
2023-07-24 13:10:00,SystemResetWarning,0835.5,5.00,000.00,029.3,026.4,000.0,037.8,030.7,22.1,0000.0,0006.76,0003.82,0003.46
2023-07-24 13:11:00,SystemResetWarning,0835.5,5.00,000.00,029.3,026.8,000.0,037.8,030.8,21.9,0000.0,0006.86,0003.82,0003.50
2023-07-24 13:12:00,SystemResetWarning,0835.5,5.00,000.00,029.3,027.1,000.0,037.8,030.8,21.8,0000.0,0007.41,0003.86,0003.55
2023-07-24 13:13:00,SystemResetWarning,0835.5,5.00,000.00,029.3,027.3,000.0,037.8,030.9,21.6,0000.0,0007.87,0003.92,0003.58
2023-07-24 13:14:00,SystemResetWarning,0835.5,5.01,000.00,029.3,027.6,000.0,037.8,030.9,21.9,0000.0,0007.95,0003.97,0003.62
2023-07-24 13:15:00,SystemResetWarning,0835.5,5.00,000.00,029.4,027.8,000.0,037.8,031.0,22.3,0000.0,0008.10,0004.03,0003.67
2023-07-24 13:16:00,SystemResetWarning,0835.5,5.00,000.00,029.4,027.9,000.0,037.8,031.0,22.2,0000.0,0008.13,0004.05,0003.70
2023-07-24 13:17:00,SystemResetWarning,0835.5,5.00,000.00,029.4,028.1,000.0,037.9,031.1,22.7,0000.0,0008.15,0004.07,0003.72
2023-07-24 13:18:00,SystemResetWarning,0835.5,5.01,000.00,029.4,028.2,000.0,037.9,031.1,21.2,0000.0,0008.20,0004.09,0003.72
2023-07-24 13:19:00,SystemResetWarning,0835.5,5.00,000.00,029.5,028.3,000.0,037.9,031.2,19.8,0000.0,0008.22,0004.10,0003.73
2023-07-24 13:20:00,SystemResetWarning,0835.5,5.00,000.00,029.5,028.4,000.0,037.9,031.2,21.0,0000.0,0007.76,0004.07,0003.72
2023-07-24 13:21:00,SystemResetWarning,0835.5,5.00,000.00,029.6,028.4,000.0,037.9,031.3,20.6,0000.0,0007.65,0004.08,0003.72
2023-07-24 13:22:00,SystemResetWarning,0835.5,4.98,000.00,029.6,027.3,000.0,037.8,031.1,21.4,0000.0,0007.65,0004.13,0003.73
2023-07-24 13:23:00,SystemResetWarning,0835.5,5.01,000.00,029.5,025.6,000.0,037.7,030.9,21.2,0000.0,0007.16,0004.12,0003.74
2023-07-24 13:24:00,SystemResetWarning,0835.6,5.02,000.00,029.4,025.4,000.0,037.7,030.7,21.1,0000.0,0006.46,0004.12,0003.76
2023-07-24 13:25:00,SystemResetWarning,0835.6,5.00,000.00,029.3,025.7,000.0,037.7,030.6,21.9,0000.0,0006.51,0004.12,0003.76
2023-07-24 13:26:00,SystemResetWarning,0835.6,5.00,000.00,029.3,026.1,000.0,037.7,030.6,21.8,0000.0,0006.88,0004.11,0003.76
2023-07-24 13:27:00,SystemResetWarning,0835.6,5.00,000.00,029.3,026.5,000.0,037.7,030.7,22.7,0000.0,0006.93,0004.12,0003.76
2023-07-24 13:28:00,SystemResetWarning,0835.5,5.00,000.00,029.3,026.9,000.0,037.8,030.8,22.7,0000.0,0007.09,0004.12,0003.75
2023-07-24 13:29:00,SystemResetWarning,0835.5,5.00,000.00,029.3,027.2,000.0,037.8,030.8,22.7,0000.0,0007.82,0004.14,0003.74
2023-07-24 13:30:00,SystemResetWarning,0835.6,5.00,000.00,029.3,027.4,000.0,037.8,030.9,21.2,0000.0,0008.56,0004.14,0003.75
2023-07-24 13:31:00,SystemResetWarning,0835.5,5.00,000.00,029.3,027.7,000.0,037.8,030.9,20.4,0000.0,0008.93,0004.13,0003.74
2023-07-24 13:32:00,SystemResetWarning,0835.5,5.00,000.00,029.4,027.8,000.0,037.8,031.0,20.9,0000.0,0009.44,0004.13,0003.74
2023-07-24 13:33:00,SystemResetWarning,0835.5,4.99,000.00,029.4,028.0,000.0,037.8,031.1,21.8,0000.0,0009.67,0004.12,0003.73
2023-07-24 13:34:00,SystemResetWarning,0835.5,5.00,000.00,029.4,028.1,000.0,037.8,031.1,21.8,0000.0,0010.40,0004.14,0003.72
2023-07-24 13:35:00,SystemResetWarning,0835.5,5.00,000.00,029.5,028.3,000.0,037.9,031.1,21.7,0000.0,0010.56,0004.14,0003.70
2023-07-24 13:36:00,SystemResetWarning,0835.5,5.00,000.00,029.5,028.3,000.0,037.9,031.2,22.0,0000.0,0010.67,0004.15,0003.69
2023-07-24 13:37:00,SystemResetWarning,0835.5,4.98,000.00,029.5,027.1,000.0,037.8,031.1,21.8,0000.0,0010.42,0004.15,0003.68
2023-07-24 13:38:00,SystemResetWarning,0835.5,5.02,000.00,029.4,025.5,000.0,037.7,030.9,22.3,0000.0,0010.39,0004.16,0003.68
2023-07-24 13:39:00,SystemResetWarning,0835.5,5.01,000.00,029.4,025.4,000.0,037.6,030.7,22.5,0000.0,0010.28,0004.14,0003.67
2023-07-24 13:40:00,SystemResetWarning,0835.5,4.99,000.00,029.3,025.7,000.0,037.6,030.6,23.4,0000.0,0010.02,0004.14,0003.67
2023-07-24 13:41:00,SystemResetWarning,0835.5,4.99,000.00,029.3,026.1,000.0,037.7,030.6,24.0,0000.0,0009.47,0004.14,0003.67
2023-07-24 13:42:00,SystemResetWarning,0835.6,5.00,000.00,029.2,026.5,000.0,037.7,030.7,26.3,0000.0,0009.70,0004.14,0003.67
2023-07-24 13:43:00,SystemResetWarning,0835.5,5.02,000.00,029.2,026.9,000.0,037.7,030.8,26.3,0000.0,0010.12,0004.14,0003.68
2023-07-24 13:44:00,SystemResetWarning,0835.5,5.00,000.00,029.3,027.2,000.0,037.7,030.8,26.8,0000.0,0010.35,0004.15,0003.67
2023-07-24 13:45:00,SystemResetWarning,0835.5,5.00,000.00,029.3,027.5,000.0,037.7,030.9,25.6,0000.0,0009.73,0004.16,0003.67
2023-07-24 13:46:00,SystemResetWarning,0835.6,5.00,000.00,029.3,027.7,000.0,037.8,031.0,23.9,0000.0,0009.97,0004.14,0003.66
2023-07-24 13:47:00,SystemResetWarning,0835.6,5.00,000.00,029.3,027.9,000.0,037.8,031.0,24.6,0000.0,0009.94,0004.14,0003.66
2023-07-24 13:48:00,SystemResetWarning,0835.6,5.00,000.00,029.4,028.0,000.0,037.8,031.1,25.7,0000.0,0010.22,0004.15,0003.67
2023-07-24 13:49:00,SystemResetWarning,0835.7,4.99,000.00,029.4,028.2,000.0,037.8,031.1,24.6,0000.0,0010.74,0004.17,0003.67
2023-07-24 13:50:00,SystemResetWarning,0835.5,4.99,000.00,029.5,028.1,000.0,037.8,031.1,25.0,0000.0,0011.51,0004.20,0003.69
2023-07-24 13:51:00,SystemResetWarning,0835.5,4.99,000.00,029.4,026.8,000.0,037.7,030.9,26.0,0000.0,0011.49,0004.21,0003.70
2023-07-24 13:52:00,SystemResetWarning,0835.5,5.01,000.00,029.4,025.4,000.0,037.6,030.7,25.6,0000.0,0011.49,0004.22,0003.70
2023-07-24 13:53:00,SystemResetWarning,0835.5,5.01,000.00,029.3,025.5,000.0,037.6,030.6,24.5,0000.0,0011.11,0004.24,0003.72
2023-07-24 13:54:00,SystemResetWarning,0835.5,5.00,000.00,029.2,025.8,000.0,037.6,030.5,24.0,0000.0,0010.37,0004.27,0003.71
2023-07-24 13:55:00,SystemResetWarning,0835.5,5.00,000.00,029.2,026.2,000.0,037.6,030.6,24.8,0000.0,0011.03,0004.29,0003.71
2023-07-24 13:56:00,SystemResetWarning,0835.5,5.00,000.00,029.2,026.6,000.0,037.7,030.7,25.5,0000.0,0010.87,0004.27,0003.70
2023-07-24 13:57:00,SystemResetWarning,0835.4,5.00,000.00,029.2,026.9,000.0,037.7,030.7,25.0,0000.0,0010.77,0004.28,0003.69
2023-07-24 13:58:00,SystemResetWarning,0835.5,5.00,000.00,029.2,027.2,000.0,037.7,030.8,23.6,0000.0,0011.69,0004.38,0003.70
2023-07-24 13:59:00,SystemResetWarning,0835.6,5.00,000.00,029.2,027.5,000.0,037.7,030.9,24.0,0000.0,0011.88,0004.44,0003.70
